Montego Bay, Jamaica

11:12 PM EST on July 20, 2017 (GMT -0500)
Sangster International

Weather History for MKJS - November, 2012

Change the Weather History Date:

Friday, November 16, 2012

  Actual Average Record
Temperature  
Mean Temperature 82 °F -  
Max Temperature 88 °F 83 °F 90 °F (2013)
Min Temperature 75 °F 74 °F 73 °F (1996)
Cooling Degree Days 16    
Growing Degree Days 32 (Base 50)    
Moisture  
Dew Point 74 °F    
Average Humidity 77    
Maximum Humidity 89    
Minimum Humidity 65    
Precipitation  
Precipitation 0.00 in - - ()
Sea Level Pressure  
Sea Level Pressure 29.90 in    
Wind  
Wind Speed 7 mph ()    
Max Wind Speed 14 mph    
Max Gust Speed -    
Visibility 7.9 miles    
Events      
Averages and records for this station are not official NWS values.
T = Trace of Precipitation, MM = Missing Value Source: Averaged Metar Reports

Daily Weather History Graph

Daily Weather History Graph

Search for Another Location

Airport or City:

Trip Planner

Search our weather history database for the weather conditions in past years. The results will help you decide how hot, cold, wet, or windy it might be!

Date:

Astronomy

Nov. 16, 2012 Rise Set
Actual Time 6:19 AM EST 5:33 PM EST
Civil Twilight 5:56 AM EST 5:56 PM EST
Nautical Twilight 5:29 AM EST 6:23 PM EST
Astronomical Twilight 5:03 AM EST 6:49 PM EST
Moon 9:05 AM EST (11/16) 8:35 PM EST (11/16)
Length of Visible Light 12h 00m
Length of Day
11h 14m
Waxing Crescent, 11% of the Moon is Illuminated
Nov 16
Waxing Crescent
Nov 20
First Quarter
Nov 28
Full
Dec 6
Last Quarter
Dec 13
New

Hourly Weather History & Observations

Time (EST) Temp. Heat Index Dew Point Humidity Pressure Visibility Wind Dir Wind Speed Gust Speed Precip Events Conditions
12:00 AM 78.8 °F - 73.4 °F 83% 29.95 in 6.2 mi East 4.6 mph - N/A   Scattered Clouds
1:00 AM 79 °F - 74 °F 79% 29.91 in 12 mi ESE 4.6 mph - -   Scattered Clouds
1:00 AM 78.8 °F - 73.4 °F 83% 29.89 in 6.2 mi ESE 4.6 mph - N/A   Partly Cloudy
2:00 AM 78.8 °F - 73.4 °F 83% 29.89 in 6.2 mi ENE 4.6 mph - N/A   Mostly Cloudy
3:00 AM 78.8 °F - 73.4 °F 83% 29.86 in 6.2 mi East 4.6 mph - N/A   Mostly Cloudy
4:00 AM 77 °F - 73 °F 85% 29.88 in 12 mi Calm Calm - -   Scattered Clouds
4:00 AM 77.0 °F - 73.4 °F 89% 29.86 in 6.2 mi Calm Calm - N/A   Partly Cloudy
5:00 AM 75.2 °F - 71.6 °F 89% 29.89 in 6.2 mi East 6.9 mph - N/A   Partly Cloudy
6:00 AM 77.0 °F - 71.6 °F 83% 0.35 in 6.2 mi SE 5.8 mph - N/A   Mostly Cloudy
7:00 AM 79 °F - 73 °F 76% 29.92 in 16 mi East 6.9 mph - -   Mostly Cloudy
7:00 AM 78.8 °F - 73.4 °F 83% 29.92 in 6.2 mi East 6.9 mph - N/A   Mostly Cloudy
8:00 AM 80.6 °F 85.4 °F 73.4 °F 79% 29.92 in 6.2 mi East 6.9 mph - N/A   Mostly Cloudy
9:00 AM 80.6 °F 85.4 °F 73.4 °F 79% 29.95 in 6.2 mi East 4.6 mph - N/A   Mostly Cloudy
10:00 AM 84.2 °F 92.3 °F 75.2 °F 74% 29.95 in 6.2 mi NE 10.4 mph - N/A   Mostly Cloudy
11:00 AM 84.2 °F 92.3 °F 75.2 °F 74% 29.95 in 6.2 mi ENE 12.7 mph - N/A   Mostly Cloudy
12:00 PM 86.0 °F 95.1 °F 75.2 °F 70% 29.92 in 6.2 mi ENE 13.8 mph - N/A   Mostly Cloudy
1:00 PM 85 °F - 76 °F 68% 29.91 in 16 mi NE 12.7 mph - -   Partly Cloudy
1:00 PM 86.0 °F 95.1 °F 75.2 °F 70% 29.89 in 6.2 mi NE 12.7 mph - N/A   Mostly Cloudy
2:00 PM 84.2 °F 92.3 °F 75.2 °F 74% 29.86 in 6.2 mi ENE 12.7 mph - N/A   Scattered Clouds
3:00 PM 86.0 °F 95.1 °F 75.2 °F 70% 29.86 in 6.2 mi ENE 12.7 mph - N/A   Mostly Cloudy
4:00 PM 85 °F - 75 °F 65% 29.87 in 16 mi ENE 13.8 mph - -   Mostly Cloudy
4:00 PM 84.2 °F 92.3 °F 75.2 °F 74% 29.86 in 6.2 mi ENE 13.8 mph - N/A   Mostly Cloudy
5:00 PM 84.2 °F 92.3 °F 75.2 °F 74% 29.86 in 6.2 mi ENE 13.8 mph - N/A   Mostly Cloudy
6:00 PM 84.2 °F 92.3 °F 75.2 °F 74% 29.86 in 6.2 mi East 12.7 mph - N/A   Mostly Cloudy
7:00 PM 83 °F - 74 °F 68% 29.92 in 12 mi East 12.7 mph - -   Mostly Cloudy
7:00 PM 82.4 °F 88.2 °F 73.4 °F 74% 29.92 in 6.2 mi East 12.7 mph - N/A   Mostly Cloudy
8:00 PM 82.4 °F 88.2 °F 73.4 °F 74% 29.92 in 6.2 mi East 10.4 mph - N/A   Mostly Cloudy
9:00 PM 82.4 °F 88.2 °F 73.4 °F 74% 29.92 in 6.2 mi East 11.5 mph - N/A   Mostly Cloudy
10:00 PM 81 °F - 74 °F 73% 29.94 in 12 mi East 11.5 mph - -   Partly Cloudy
10:00 PM 80.6 °F 85.4 °F 73.4 °F 79% 29.92 in 6.2 mi East 11.5 mph - N/A   Mostly Cloudy
11:00 PM 80.6 °F 85.4 °F 73.4 °F 79% 29.92 in 6.2 mi East 6.9 mph - N/A   Mostly Cloudy